DECAYED

COSMOS 2251 DEB, 34847 (Decayed)

Orbit data source: Space-Track

COSMOS 2251 DEB, 34847 was space debris in LEO originally from a launch on Wed, 16 Jun 1993 UTC launched from the Plesetsk Missile And Space Complex (PKMTR). The debris from Iridium 33, an American commercial communications satellite, has been tracked extensively since its accidental collision with the defunct Russian satellite Cosmos 2251 in 2009. This event, occurring at high speed in low Earth orbit (LEO), generated thousands of pieces of space debris, significantly increasing the risk of further collisions. The Iridium 33 debris cloud has impacted space traffic management and orbital debris mitigation strategies, making it a subject of ongoing study in space situational awareness.

Not visible in the next 10 days
Identifier
34847, 1993-036ABR
Orbit
Decayed
Country
Flag of CISCIS
Related business
Manufacturer
Unknown
Mission
Decayed spacecraft
Bus & Motor
Unknown
Mass
Unknown
Launch date (UTC)
1993-06-16 (33 years ago)
Launch vehicle
Unknown
Launch site
Plesetsk Missile And Space Complex (PKMTR)
Object type
Payload
Rocket body
Debris
Shape & HBR
Unknown shape, 0.1 m
Radar Cross Section
Small (<0.1 m²)

Expand to show TLE details & history
Last TLE update: 1 year ago

TLE from 1 year ago
0 COSMOS 2251 DEB
1 34847U 93036ABR 25153.35215041  .01100548  55973-3  28971-2 0  9994
2 34847  73.9769  36.5257 0022760 173.6691 186.4837 15.94299290879132
Epoch: 2025-06-02T08:27Z
TLE epoch observation values (Epoch: 2025-06-02T08:27:05.795Z)
Latitude
-0.00005°
Longitude
18.68647°
Altitude
308.147 km
Speed
7.715 km/s
True Right ascension
02h 26m 06s
True Declination
0° 00' 00"
Sunlit
Object was in daylight at epoch
Visualization orbit readout
Latitude
Unknown
Longitude
Unknown
Altitude
Unknown
Speed
Unknown
Apparent Right ascension
Unknown
Apparent Declination
Unknown
Sunlit
N/A
Visualization observer readout
Local Sidereal Time
11:22:33
Azimuth
Unknown
Elevation
Unknown
Doppler factor
Unknown
Orbital elements
Apogee altitude
302.896 km
Perigee altitude
272.553 km
Semi-major axis
6,665.862 km
Eccentricity
0.00228
Inclination
73.9769°
RAAN
36.5257°
Arg. of periapsis
173.6691°
True anomaly
186.45433°
Mean anomaly
186.4837°
Eccentric anomaly
186.46901°
Mean motion
3.98803 °/min
Orbital period
90.27 mins
BSTAR
0.0028971
Loading maneuver chart data...
Computing Atmospheric mass density...

Documentation

Showing up to 5 results
|